Location: Hurecourt
(47.9030°N, 6.0653°E)
Time: 09:50:50
(UTC+00:00)

Cosmos 1241 Rocket - Pass Details

Date: 14 July 2020
Orbit: 935 x 1012 km, 65.8° (Epoch: 05 August)

Event Time Altitude Azimuth Distance (km) Brightness Sun altitude
Rises 01:23:17 0° 322° (NW) 3,683 7.9 -16.8°
Reaches altitude 10° 01:25:51 10° 321° (NW) 2,743 7.2 -16.6°
Maximum altitude 01:32:16 74° 238° (WSW) 1,037 4.5 -16.2°
Drops below altitude 10° 01:38:45 10° 155° (SSE) 2,774 6.5 -15.7°
Enters shadow 01:41:09 - 153° (SSE) 3,652 7.2 -15.5°
